Year,Month,Day,Hour,Minute,Value (Times are PST for temperature in C)
2010,07,08,00,00,22.10
2010,07,08,00,01,22.10
2010,07,08,00,02,22.00
2010,07,08,00,03,22.00
2010,07,08,00,04,22.00
2010,07,08,00,05,21.90
2010,07,08,00,06,21.90
2010,07,08,00,07,21.80
2010,07,08,00,08,21.80
2010,07,08,00,09,21.80
2010,07,08,00,10,21.80
2010,07,08,00,11,21.80
2010,07,08,00,12,21.70
2010,07,08,00,13,21.70
2010,07,08,00,14,21.70
2010,07,08,00,15,21.70
2010,07,08,00,16,21.70
2010,07,08,00,17,21.70
2010,07,08,00,18,21.60
2010,07,08,00,19,21.60
2010,07,08,00,20,21.70
2010,07,08,00,21,21.70
2010,07,08,00,22,21.70
2010,07,08,00,23,21.80
2010,07,08,00,24,21.80
2010,07,08,00,25,21.80
2010,07,08,00,26,21.80
2010,07,08,00,27,21.80
2010,07,08,00,28,21.90
2010,07,08,00,29,21.90
2010,07,08,00,30,21.90
2010,07,08,00,31,21.90
2010,07,08,00,32,21.90
2010,07,08,00,33,21.80
2010,07,08,00,34,21.80
2010,07,08,00,35,21.80
2010,07,08,00,36,21.80
2010,07,08,00,37,21.80
2010,07,08,00,38,21.80
2010,07,08,00,39,21.70
2010,07,08,00,40,21.70
2010,07,08,00,41,21.60
2010,07,08,00,42,21.60
2010,07,08,00,43,21.60
2010,07,08,00,44,21.60
2010,07,08,00,45,21.60
2010,07,08,00,46,21.70
2010,07,08,00,47,21.80
2010,07,08,00,48,21.80
2010,07,08,00,49,21.80
2010,07,08,00,50,21.80
2010,07,08,00,51,21.80
2010,07,08,00,52,21.80
2010,07,08,00,53,21.70
2010,07,08,00,54,21.80
2010,07,08,00,55,21.80
2010,07,08,00,56,21.90
2010,07,08,00,57,21.90
2010,07,08,00,58,21.90
2010,07,08,00,59,22.00
2010,07,08,01,00,22.00
2010,07,08,01,01,22.10
2010,07,08,01,02,22.10
2010,07,08,01,03,22.20
2010,07,08,01,04,22.20
2010,07,08,01,05,22.30
2010,07,08,01,06,22.30
2010,07,08,01,07,22.40
2010,07,08,01,08,22.40
2010,07,08,01,09,22.40
2010,07,08,01,10,22.40
2010,07,08,01,11,22.40
2010,07,08,01,12,22.40
2010,07,08,01,13,22.40
2010,07,08,01,14,22.50
2010,07,08,01,15,22.50
2010,07,08,01,16,22.50
2010,07,08,01,17,22.50
2010,07,08,01,18,22.50
2010,07,08,01,19,22.50
2010,07,08,01,20,22.50
2010,07,08,01,21,22.50
2010,07,08,01,22,22.50
2010,07,08,01,23,22.50
2010,07,08,01,24,22.50
2010,07,08,01,25,22.40
2010,07,08,01,26,22.40
2010,07,08,01,27,22.30
2010,07,08,01,28,22.30
2010,07,08,01,29,22.30
2010,07,08,01,30,22.30
2010,07,08,01,31,22.30
2010,07,08,01,32,22.30
2010,07,08,01,33,22.30
2010,07,08,01,34,22.30
2010,07,08,01,35,22.30
2010,07,08,01,36,22.20
2010,07,08,01,37,22.20
2010,07,08,01,38,22.20
2010,07,08,01,39,22.10
2010,07,08,01,40,22.00
2010,07,08,01,41,21.90
2010,07,08,01,42,21.80
2010,07,08,01,43,21.70
2010,07,08,01,44,21.60
2010,07,08,01,45,21.60
2010,07,08,01,46,21.50
2010,07,08,01,47,21.40
2010,07,08,01,48,21.30
2010,07,08,01,49,21.20
2010,07,08,01,50,21.10
2010,07,08,01,51,21.00
2010,07,08,01,52,21.00
2010,07,08,01,53,20.90
2010,07,08,01,54,20.90
2010,07,08,01,55,20.80
2010,07,08,01,56,20.80
2010,07,08,01,57,20.70
2010,07,08,01,58,20.70
2010,07,08,01,59,20.60
2010,07,08,02,00,20.60
2010,07,08,02,01,20.50
2010,07,08,02,02,20.50
2010,07,08,02,03,20.50
2010,07,08,02,04,20.40
2010,07,08,02,05,20.40
2010,07,08,02,06,20.30
2010,07,08,02,07,20.20
2010,07,08,02,08,20.20
2010,07,08,02,09,20.20
2010,07,08,02,10,20.10
2010,07,08,02,11,20.00
2010,07,08,02,12,19.90
2010,07,08,02,13,19.90
2010,07,08,02,14,19.80
2010,07,08,02,15,19.80
2010,07,08,02,16,19.80
2010,07,08,02,17,19.70
2010,07,08,02,18,19.70
2010,07,08,02,19,19.70
2010,07,08,02,20,19.70
2010,07,08,02,21,19.60
2010,07,08,02,22,19.60
2010,07,08,02,23,19.60
2010,07,08,02,24,19.50
2010,07,08,02,25,19.50
2010,07,08,02,26,19.50
2010,07,08,02,27,19.50
2010,07,08,02,28,19.50
2010,07,08,02,29,19.50
2010,07,08,02,30,19.50
2010,07,08,02,31,19.40
2010,07,08,02,32,19.40
2010,07,08,02,33,19.40
2010,07,08,02,34,19.50
2010,07,08,02,35,19.50
2010,07,08,02,36,19.50
2010,07,08,02,37,19.50
2010,07,08,02,38,19.50
2010,07,08,02,39,19.50
2010,07,08,02,40,19.50
2010,07,08,02,41,19.50
2010,07,08,02,42,19.50
2010,07,08,02,43,19.50
2010,07,08,02,44,19.50
2010,07,08,02,45,19.50
2010,07,08,02,46,19.50
2010,07,08,02,47,19.50
2010,07,08,02,48,19.50
2010,07,08,02,49,19.50
2010,07,08,02,50,19.50
2010,07,08,02,51,19.50
2010,07,08,02,52,19.50
2010,07,08,02,53,19.50
2010,07,08,02,54,19.50
2010,07,08,02,55,19.60
2010,07,08,02,56,19.60
2010,07,08,02,57,19.60
2010,07,08,02,58,19.60
2010,07,08,02,59,19.60
2010,07,08,03,00,19.60
2010,07,08,03,01,19.60
2010,07,08,03,02,19.60
2010,07,08,03,03,19.60
2010,07,08,03,04,19.60
2010,07,08,03,05,19.60
2010,07,08,03,06,19.60
2010,07,08,03,07,19.60
2010,07,08,03,08,19.60
2010,07,08,03,09,19.50
2010,07,08,03,10,19.50
2010,07,08,03,11,19.50
2010,07,08,03,12,19.50
2010,07,08,03,13,19.40
2010,07,08,03,14,19.40
2010,07,08,03,15,19.40
2010,07,08,03,16,19.40
2010,07,08,03,17,19.30
2010,07,08,03,18,19.30
2010,07,08,03,19,19.30
2010,07,08,03,20,19.30
2010,07,08,03,21,19.30
2010,07,08,03,22,19.20
2010,07,08,03,23,19.20
2010,07,08,03,24,19.20
2010,07,08,03,25,19.20
2010,07,08,03,26,19.20
2010,07,08,03,27,19.20
2010,07,08,03,28,19.20
2010,07,08,03,29,19.20
2010,07,08,03,30,19.30
2010,07,08,03,31,19.30
2010,07,08,03,32,19.30
2010,07,08,03,33,19.40
2010,07,08,03,34,19.40
2010,07,08,03,35,19.40
2010,07,08,03,36,19.40
2010,07,08,03,37,19.40
2010,07,08,03,38,19.40
2010,07,08,03,39,19.40
2010,07,08,03,40,19.40
2010,07,08,03,41,19.40
2010,07,08,03,42,19.30
2010,07,08,03,43,19.30
2010,07,08,03,44,19.30
2010,07,08,03,45,19.20
2010,07,08,03,46,19.20
2010,07,08,03,47,19.20
2010,07,08,03,48,19.20
2010,07,08,03,49,19.20
2010,07,08,03,50,19.20
2010,07,08,03,51,19.20
2010,07,08,03,52,19.20
2010,07,08,03,53,19.20
2010,07,08,03,54,19.20
2010,07,08,03,55,19.20
2010,07,08,03,56,19.20
2010,07,08,03,57,19.20
2010,07,08,03,58,19.20
2010,07,08,03,59,19.20
2010,07,08,04,00,19.20
2010,07,08,04,01,19.20
2010,07,08,04,02,19.20
2010,07,08,04,03,19.20
2010,07,08,04,04,19.30
2010,07,08,04,05,19.30
2010,07,08,04,06,19.30
2010,07,08,04,07,19.30
2010,07,08,04,08,19.30
2010,07,08,04,09,19.30
2010,07,08,04,10,19.40
2010,07,08,04,11,19.40
2010,07,08,04,12,19.30
2010,07,08,04,13,19.30
2010,07,08,04,14,19.30
2010,07,08,04,15,19.30
2010,07,08,04,16,19.30
2010,07,08,04,17,19.30
2010,07,08,04,18,19.30
2010,07,08,04,19,19.30
2010,07,08,04,20,19.30
2010,07,08,04,21,19.30
2010,07,08,04,22,19.30
2010,07,08,04,23,19.40
2010,07,08,04,24,19.40
2010,07,08,04,25,19.40
2010,07,08,04,26,19.40
2010,07,08,04,27,19.40
2010,07,08,04,28,19.40
2010,07,08,04,29,19.40
2010,07,08,04,30,19.40
2010,07,08,04,31,19.40
2010,07,08,04,32,19.40
2010,07,08,04,33,19.40
2010,07,08,04,34,19.40
2010,07,08,04,35,19.40
2010,07,08,04,36,19.30
2010,07,08,04,37,19.30
2010,07,08,04,38,19.30
2010,07,08,04,39,19.20
2010,07,08,04,40,19.10
2010,07,08,04,41,19.10
2010,07,08,04,42,19.00
2010,07,08,04,43,18.90
2010,07,08,04,44,18.90
2010,07,08,04,45,18.80
2010,07,08,04,46,18.70
2010,07,08,04,47,18.60
2010,07,08,04,48,18.60
2010,07,08,04,49,18.50
2010,07,08,04,50,18.40
2010,07,08,04,51,18.30
2010,07,08,04,52,18.20
2010,07,08,04,53,18.10
2010,07,08,04,54,18.00
2010,07,08,04,55,17.90
2010,07,08,04,56,17.90
2010,07,08,04,57,17.80
2010,07,08,04,58,17.70
2010,07,08,04,59,17.60
2010,07,08,05,00,17.60
2010,07,08,05,01,17.50
2010,07,08,05,02,17.50
2010,07,08,05,03,17.40
2010,07,08,05,04,17.40
2010,07,08,05,05,17.40
2010,07,08,05,06,17.30
2010,07,08,05,07,17.30
2010,07,08,05,08,17.30
2010,07,08,05,09,17.30
2010,07,08,05,10,17.30
2010,07,08,05,11,17.30
2010,07,08,05,12,17.20
2010,07,08,05,13,17.20
2010,07,08,05,14,17.20
2010,07,08,05,15,17.20
2010,07,08,05,16,17.10
2010,07,08,05,17,17.10
2010,07,08,05,18,17.10
2010,07,08,05,19,17.00
2010,07,08,05,20,17.00
2010,07,08,05,21,17.00
2010,07,08,05,22,17.00
2010,07,08,05,23,16.90
2010,07,08,05,24,16.90
2010,07,08,05,25,16.90
2010,07,08,05,26,16.90
2010,07,08,05,27,16.90
2010,07,08,05,28,16.90
2010,07,08,05,29,16.80
2010,07,08,05,30,16.80
2010,07,08,05,31,16.80
2010,07,08,05,32,16.80
2010,07,08,05,33,16.80
2010,07,08,05,34,16.80
2010,07,08,05,35,16.70
2010,07,08,05,36,16.70
2010,07,08,05,37,16.70
2010,07,08,05,38,16.70
2010,07,08,05,39,16.70
2010,07,08,05,40,16.70
2010,07,08,05,41,16.70
2010,07,08,05,42,16.70
2010,07,08,05,43,16.70
2010,07,08,05,44,16.80
2010,07,08,05,45,16.80
2010,07,08,05,46,16.90
2010,07,08,05,47,17.00
2010,07,08,05,48,17.00
2010,07,08,05,49,17.10
2010,07,08,05,50,17.20
2010,07,08,05,51,17.30
2010,07,08,05,52,17.40
2010,07,08,05,53,17.50
2010,07,08,05,54,17.70
2010,07,08,05,55,17.80
2010,07,08,05,56,17.90
2010,07,08,05,57,17.90
2010,07,08,05,58,18.10
2010,07,08,05,59,18.20
2010,07,08,06,00,18.30
2010,07,08,06,01,18.40
2010,07,08,06,02,18.50
2010,07,08,06,03,18.60
2010,07,08,06,04,18.70
2010,07,08,06,05,18.80
2010,07,08,06,06,18.90
2010,07,08,06,07,19.10
2010,07,08,06,08,19.20
2010,07,08,06,09,19.40
2010,07,08,06,10,19.40
2010,07,08,06,11,19.50
2010,07,08,06,12,19.50
2010,07,08,06,13,19.50
2010,07,08,06,14,19.40
2010,07,08,06,15,19.30
2010,07,08,06,16,19.20
2010,07,08,06,17,19.10
2010,07,08,06,18,19.00
2010,07,08,06,19,18.90
2010,07,08,06,20,18.70
2010,07,08,06,21,18.60
2010,07,08,06,22,18.50
2010,07,08,06,23,18.40
2010,07,08,06,24,18.40
2010,07,08,06,25,18.30
2010,07,08,06,26,18.30
2010,07,08,06,27,18.40
2010,07,08,06,28,18.40
2010,07,08,06,29,18.40
2010,07,08,06,30,18.50
2010,07,08,06,31,18.60
2010,07,08,06,32,18.60
2010,07,08,06,33,18.70
2010,07,08,06,34,18.70
2010,07,08,06,35,18.80
2010,07,08,06,36,18.80
2010,07,08,06,37,18.90
2010,07,08,06,38,18.90
2010,07,08,06,39,18.90
2010,07,08,06,40,19.10
2010,07,08,06,41,19.10
2010,07,08,06,42,19.10
2010,07,08,06,43,19.20
2010,07,08,06,44,19.20
2010,07,08,06,45,19.30
2010,07,08,06,46,19.40
2010,07,08,06,47,19.40
2010,07,08,06,48,19.50
2010,07,08,06,49,19.60
2010,07,08,06,50,19.60
2010,07,08,06,51,19.70
2010,07,08,06,52,19.80
2010,07,08,06,53,19.80
2010,07,08,06,54,19.90
2010,07,08,06,55,19.90
2010,07,08,06,56,20.00
2010,07,08,06,57,20.10
2010,07,08,06,58,20.20
2010,07,08,06,59,20.20
2010,07,08,07,00,20.30
2010,07,08,07,01,20.40
2010,07,08,07,02,20.40
2010,07,08,07,03,20.40
2010,07,08,07,04,20.40
2010,07,08,07,05,20.40
2010,07,08,07,06,20.50
2010,07,08,07,07,20.50
2010,07,08,07,08,20.50
2010,07,08,07,09,20.50
2010,07,08,07,10,20.50
2010,07,08,07,11,20.50
2010,07,08,07,12,20.60
2010,07,08,07,13,20.60
2010,07,08,07,14,20.70
2010,07,08,07,15,20.70
2010,07,08,07,16,20.70
2010,07,08,07,17,20.70
2010,07,08,07,18,20.70
2010,07,08,07,19,20.70
2010,07,08,07,20,20.70
2010,07,08,07,21,20.70
2010,07,08,07,22,20.70
2010,07,08,07,23,20.80
2010,07,08,07,24,20.80
2010,07,08,07,25,20.80
2010,07,08,07,26,20.80
2010,07,08,07,27,20.80
2010,07,08,07,28,20.70
2010,07,08,07,29,20.70
2010,07,08,07,30,20.70
2010,07,08,07,31,20.70
2010,07,08,07,32,20.70
2010,07,08,07,33,20.70
2010,07,08,07,34,20.70
2010,07,08,07,35,20.70
2010,07,08,07,36,20.80
2010,07,08,07,37,20.70
2010,07,08,07,38,20.70
2010,07,08,07,39,20.70
2010,07,08,07,40,20.80
2010,07,08,07,41,20.80
2010,07,08,07,42,20.70
2010,07,08,07,43,20.70
2010,07,08,07,44,20.70
2010,07,08,07,45,20.70
2010,07,08,07,46,20.80
2010,07,08,07,47,20.80
2010,07,08,07,48,20.80
2010,07,08,07,49,20.80
2010,07,08,07,50,20.80
2010,07,08,07,51,20.80
2010,07,08,07,52,20.80
2010,07,08,07,53,20.80
2010,07,08,07,54,20.70
2010,07,08,07,55,20.70
2010,07,08,07,56,20.70
2010,07,08,07,57,20.70
2010,07,08,07,58,20.70
2010,07,08,07,59,20.80
2010,07,08,08,00,20.80
2010,07,08,08,01,20.90
2010,07,08,08,02,20.90
2010,07,08,08,03,21.00
2010,07,08,08,04,21.10
2010,07,08,08,05,21.20
2010,07,08,08,06,21.30
2010,07,08,08,07,21.40
2010,07,08,08,08,21.50
2010,07,08,08,09,21.60
2010,07,08,08,10,21.60
2010,07,08,08,11,21.60
2010,07,08,08,12,21.60
2010,07,08,08,13,21.60
2010,07,08,08,14,21.70
2010,07,08,08,15,21.70
2010,07,08,08,16,21.70
2010,07,08,08,17,21.70
2010,07,08,08,18,21.70
2010,07,08,08,19,21.80
2010,07,08,08,20,21.80
2010,07,08,08,21,21.80
2010,07,08,08,22,21.80
2010,07,08,08,23,21.80
2010,07,08,08,24,21.80
2010,07,08,08,25,21.80
2010,07,08,08,26,21.80
2010,07,08,08,27,21.70
2010,07,08,08,28,21.70
2010,07,08,08,29,21.70
2010,07,08,08,30,21.70
2010,07,08,08,31,21.60
2010,07,08,08,32,21.60
2010,07,08,08,33,21.60
2010,07,08,08,34,21.60
2010,07,08,08,35,21.60
2010,07,08,08,36,21.60
2010,07,08,08,37,21.60
2010,07,08,08,38,21.60
2010,07,08,08,39,21.60
2010,07,08,08,40,21.60
2010,07,08,08,41,21.70
2010,07,08,08,42,21.80
2010,07,08,08,43,21.90
2010,07,08,08,44,22.00
2010,07,08,08,45,22.10
2010,07,08,08,46,22.20
2010,07,08,08,47,22.30
2010,07,08,08,48,22.40
2010,07,08,08,49,22.60
2010,07,08,08,50,22.60
2010,07,08,08,51,22.60
2010,07,08,08,52,22.60
2010,07,08,08,53,22.70
2010,07,08,08,54,22.70
2010,07,08,08,55,22.80
2010,07,08,08,56,22.80
2010,07,08,08,57,22.80
2010,07,08,08,58,22.90
2010,07,08,08,59,22.90
2010,07,08,09,00,22.90
2010,07,08,09,01,22.90
2010,07,08,09,02,22.90
2010,07,08,09,03,22.90
2010,07,08,09,04,22.90
2010,07,08,09,05,22.90
2010,07,08,09,06,22.90
2010,07,08,09,07,22.90
2010,07,08,09,08,22.90
2010,07,08,09,09,22.90
2010,07,08,09,10,22.90
2010,07,08,09,11,22.90
2010,07,08,09,12,22.90
2010,07,08,09,13,22.90
2010,07,08,09,14,22.80
2010,07,08,09,15,22.80
2010,07,08,09,16,22.80
2010,07,08,09,17,22.80
2010,07,08,09,18,22.90
2010,07,08,09,19,22.90
2010,07,08,09,20,23.00
2010,07,08,09,21,23.20
2010,07,08,09,22,23.20
2010,07,08,09,23,23.20
2010,07,08,09,24,23.20
2010,07,08,09,25,23.30
2010,07,08,09,26,23.30
2010,07,08,09,27,23.30
2010,07,08,09,28,23.30
2010,07,08,09,29,23.30
2010,07,08,09,30,23.40
2010,07,08,09,31,23.40
2010,07,08,09,32,23.40
2010,07,08,09,33,23.40
2010,07,08,09,34,23.50
2010,07,08,09,35,23.60
2010,07,08,09,36,23.60
2010,07,08,09,37,23.70
2010,07,08,09,38,23.70
2010,07,08,09,39,23.70
2010,07,08,09,40,23.80
2010,07,08,09,41,23.80
2010,07,08,09,42,23.90
2010,07,08,09,43,23.90
2010,07,08,09,44,24.00
2010,07,08,09,45,24.00
2010,07,08,09,46,23.90
2010,07,08,09,47,24.00
2010,07,08,09,48,24.10
2010,07,08,09,49,24.00
2010,07,08,09,50,23.90
2010,07,08,09,51,23.90
2010,07,08,09,52,23.90
2010,07,08,09,53,24.00
2010,07,08,09,54,24.10
2010,07,08,09,55,24.10
2010,07,08,09,56,24.10
2010,07,08,09,57,24.10
2010,07,08,09,58,24.10
2010,07,08,09,59,24.20
2010,07,08,10,00,24.20
2010,07,08,10,01,24.20
2010,07,08,10,02,24.30
2010,07,08,10,03,24.30
2010,07,08,10,04,24.20
2010,07,08,10,05,24.20
2010,07,08,10,06,24.20
2010,07,08,10,07,24.20
2010,07,08,10,08,24.20
2010,07,08,10,09,24.30
2010,07,08,10,10,24.30
2010,07,08,10,11,24.30
2010,07,08,10,12,24.30
2010,07,08,10,13,24.30
2010,07,08,10,14,24.30
2010,07,08,10,15,24.20
2010,07,08,10,16,24.20
2010,07,08,10,17,24.10
2010,07,08,10,18,24.10
2010,07,08,10,19,24.10
2010,07,08,10,20,24.10
2010,07,08,10,21,24.20
2010,07,08,10,22,24.20
2010,07,08,10,23,24.20
2010,07,08,10,24,24.30
2010,07,08,10,25,24.30
2010,07,08,10,26,24.40
2010,07,08,10,27,24.40
2010,07,08,10,28,24.40
2010,07,08,10,29,24.50
2010,07,08,10,30,24.50
2010,07,08,10,31,24.60
2010,07,08,10,32,24.70
2010,07,08,10,33,24.70
2010,07,08,10,34,24.80
2010,07,08,10,35,24.90
2010,07,08,10,36,24.90
2010,07,08,10,37,24.90
2010,07,08,10,38,24.90
2010,07,08,10,39,25.00
2010,07,08,10,40,25.00
2010,07,08,10,41,25.00
2010,07,08,10,42,25.10
2010,07,08,10,43,25.10
2010,07,08,10,44,25.10
2010,07,08,10,45,25.00
2010,07,08,10,46,25.10
2010,07,08,10,47,25.10
2010,07,08,10,48,25.10
2010,07,08,10,49,25.10
2010,07,08,10,50,25.00
2010,07,08,10,51,24.90
2010,07,08,10,52,24.90
2010,07,08,10,53,24.90
2010,07,08,10,54,24.80
2010,07,08,10,55,24.80
2010,07,08,10,56,24.80
2010,07,08,10,57,24.80
2010,07,08,10,58,24.80
2010,07,08,10,59,24.90
2010,07,08,11,00,24.90
2010,07,08,11,01,25.10
2010,07,08,11,02,25.20
2010,07,08,11,03,25.40
2010,07,08,11,04,25.50
2010,07,08,11,05,25.60
2010,07,08,11,06,25.60
2010,07,08,11,07,25.60
2010,07,08,11,08,25.70
2010,07,08,11,09,25.70
2010,07,08,11,10,25.80
2010,07,08,11,11,25.90
2010,07,08,11,12,25.90
2010,07,08,11,13,25.90
2010,07,08,11,14,25.90
2010,07,08,11,15,25.90
2010,07,08,11,16,26.00
2010,07,08,11,17,26.00
2010,07,08,11,18,25.90
2010,07,08,11,19,25.90
2010,07,08,11,20,25.90
2010,07,08,11,21,26.00
2010,07,08,11,22,26.10
2010,07,08,11,23,26.00
2010,07,08,11,24,26.00
2010,07,08,11,25,26.00
2010,07,08,11,26,25.90
2010,07,08,11,27,25.90
2010,07,08,11,28,25.80
2010,07,08,11,29,25.80
2010,07,08,11,30,25.80
2010,07,08,11,31,25.80
2010,07,08,11,32,25.90
2010,07,08,11,33,25.90
2010,07,08,11,34,25.90
2010,07,08,11,35,26.00
2010,07,08,11,36,26.00
2010,07,08,11,37,26.00
2010,07,08,11,38,26.00
2010,07,08,11,39,26.00
2010,07,08,11,40,26.10
2010,07,08,11,41,26.20
2010,07,08,11,42,26.30
2010,07,08,11,43,26.30
2010,07,08,11,44,26.30
2010,07,08,11,45,26.40
2010,07,08,11,46,26.40
2010,07,08,11,47,26.40
2010,07,08,11,48,26.40
2010,07,08,11,49,26.50
2010,07,08,11,50,26.60
2010,07,08,11,51,26.60
2010,07,08,11,52,26.70
2010,07,08,11,53,26.80
2010,07,08,11,54,26.80
2010,07,08,11,55,26.80
2010,07,08,11,56,26.80
2010,07,08,11,57,26.80
2010,07,08,11,58,26.70
2010,07,08,11,59,26.70
2010,07,08,12,00,26.60
2010,07,08,12,01,26.60
2010,07,08,12,02,26.60
2010,07,08,12,03,26.60
2010,07,08,12,04,26.60
2010,07,08,12,05,26.60
2010,07,08,12,06,26.60
2010,07,08,12,07,26.70
2010,07,08,12,08,26.80
2010,07,08,12,09,26.80
2010,07,08,12,10,26.80
2010,07,08,12,11,26.80
2010,07,08,12,12,26.80
2010,07,08,12,13,26.80
2010,07,08,12,14,26.70
2010,07,08,12,15,26.60
2010,07,08,12,16,26.70
2010,07,08,12,17,26.70
2010,07,08,12,18,26.70
2010,07,08,12,19,26.70
2010,07,08,12,20,26.80
2010,07,08,12,21,26.80
2010,07,08,12,22,26.80
2010,07,08,12,23,26.80
2010,07,08,12,24,26.70
2010,07,08,12,25,26.70
2010,07,08,12,26,26.70
2010,07,08,12,27,26.80
2010,07,08,12,28,26.80
2010,07,08,12,29,26.80
2010,07,08,12,30,26.90
2010,07,08,12,31,27.00
2010,07,08,12,32,27.10
2010,07,08,12,33,27.20
2010,07,08,12,34,27.30
2010,07,08,12,35,27.30
2010,07,08,12,36,27.30
2010,07,08,12,37,27.30
2010,07,08,12,38,27.30
2010,07,08,12,39,27.30
2010,07,08,12,40,27.30
2010,07,08,12,41,27.30
2010,07,08,12,42,27.30
2010,07,08,12,43,27.30
2010,07,08,12,44,27.40
2010,07,08,12,45,27.50
2010,07,08,12,46,27.60
2010,07,08,12,47,27.60
2010,07,08,12,48,27.70
2010,07,08,12,49,27.70
2010,07,08,12,50,27.80
2010,07,08,12,51,27.70
2010,07,08,12,52,27.70
2010,07,08,12,53,27.60
2010,07,08,12,54,27.60
2010,07,08,12,55,27.60
2010,07,08,12,56,27.60
2010,07,08,12,57,27.60
2010,07,08,12,58,27.70
2010,07,08,12,59,27.70
2010,07,08,13,00,27.70
2010,07,08,13,01,27.70
2010,07,08,13,02,27.70
2010,07,08,13,03,27.70
2010,07,08,13,04,27.70
2010,07,08,13,05,27.60
2010,07,08,13,06,27.70
2010,07,08,13,07,27.70
2010,07,08,13,08,27.90
2010,07,08,13,09,27.90
2010,07,08,13,10,28.00
2010,07,08,13,11,28.10
2010,07,08,13,12,28.10
2010,07,08,13,13,28.10
2010,07,08,13,14,28.00
2010,07,08,13,15,27.90
2010,07,08,13,16,27.90
2010,07,08,13,17,27.90
2010,07,08,13,18,28.00
2010,07,08,13,19,28.10
2010,07,08,13,20,28.00
2010,07,08,13,21,27.90
2010,07,08,13,22,27.90
2010,07,08,13,23,27.80
2010,07,08,13,24,27.80
2010,07,08,13,25,27.90
2010,07,08,13,26,27.90
2010,07,08,13,27,27.90
2010,07,08,13,28,27.90
2010,07,08,13,29,27.90
2010,07,08,13,30,27.90
2010,07,08,13,31,28.00
2010,07,08,13,32,28.10
2010,07,08,13,33,28.20
2010,07,08,13,34,28.20
2010,07,08,13,35,28.10
2010,07,08,13,36,28.20
2010,07,08,13,37,28.20
2010,07,08,13,38,28.20
2010,07,08,13,39,28.20
2010,07,08,13,40,28.20
2010,07,08,13,41,28.30
2010,07,08,13,42,28.30
2010,07,08,13,43,28.30
2010,07,08,13,44,28.40
2010,07,08,13,45,28.50
2010,07,08,13,46,28.60
2010,07,08,13,47,28.60
2010,07,08,13,48,28.50
2010,07,08,13,49,28.40
2010,07,08,13,50,28.50
2010,07,08,13,51,28.60
2010,07,08,13,52,28.60
2010,07,08,13,53,28.60
2010,07,08,13,54,28.60
2010,07,08,13,55,28.70
2010,07,08,13,56,28.70
2010,07,08,13,57,28.80
2010,07,08,13,58,28.80
2010,07,08,13,59,28.90
2010,07,08,14,00,29.00
2010,07,08,14,01,29.10
2010,07,08,14,02,29.20
2010,07,08,14,03,29.10
2010,07,08,14,04,29.10
2010,07,08,14,05,29.10
2010,07,08,14,06,29.10
2010,07,08,14,07,29.00
2010,07,08,14,08,28.90
2010,07,08,14,09,28.90
2010,07,08,14,10,28.90
2010,07,08,14,11,28.90
2010,07,08,14,12,28.90
2010,07,08,14,13,28.80
2010,07,08,14,14,28.80
2010,07,08,14,15,28.90
2010,07,08,14,16,28.90
2010,07,08,14,17,29.00
2010,07,08,14,18,29.00
2010,07,08,14,19,28.90
2010,07,08,14,20,28.90
2010,07,08,14,21,28.90
2010,07,08,14,22,28.80
2010,07,08,14,23,28.80
2010,07,08,14,24,28.80
2010,07,08,14,25,28.80
2010,07,08,14,26,28.80
2010,07,08,14,27,28.80
2010,07,08,14,28,28.80
2010,07,08,14,29,28.80
2010,07,08,14,30,28.90
2010,07,08,14,31,28.90
2010,07,08,14,32,29.00
2010,07,08,14,33,29.00
2010,07,08,14,34,28.90
2010,07,08,14,35,28.90
2010,07,08,14,36,28.90
2010,07,08,14,37,28.90
2010,07,08,14,38,28.90
2010,07,08,14,39,28.90
2010,07,08,14,40,28.90
2010,07,08,14,41,28.90
2010,07,08,14,42,28.90
2010,07,08,14,43,28.90
2010,07,08,14,44,28.90
2010,07,08,14,45,28.90
2010,07,08,14,46,28.90
2010,07,08,14,47,29.00
2010,07,08,14,48,29.10
2010,07,08,14,49,29.20
2010,07,08,14,50,29.10
2010,07,08,14,51,29.10
2010,07,08,14,52,29.10
2010,07,08,14,53,29.20
2010,07,08,14,54,29.30
2010,07,08,14,55,29.30
2010,07,08,14,56,29.30
2010,07,08,14,57,29.20
2010,07,08,14,58,29.20
2010,07,08,14,59,29.20
2010,07,08,15,00,29.20
2010,07,08,15,01,29.30
2010,07,08,15,02,29.40
2010,07,08,15,03,29.50
2010,07,08,15,04,29.60
2010,07,08,15,05,29.70
2010,07,08,15,06,29.70
2010,07,08,15,07,29.80
2010,07,08,15,08,29.90
2010,07,08,15,09,30.00
2010,07,08,15,10,30.10
2010,07,08,15,11,30.20
2010,07,08,15,12,30.20
2010,07,08,15,13,30.10
2010,07,08,15,14,30.20
2010,07,08,15,15,30.20
2010,07,08,15,16,30.20
2010,07,08,15,17,30.20
2010,07,08,15,18,30.20
2010,07,08,15,19,30.20
2010,07,08,15,20,30.30
2010,07,08,15,21,30.30
2010,07,08,15,22,30.40
2010,07,08,15,23,30.40
2010,07,08,15,24,30.40
2010,07,08,15,25,30.40
2010,07,08,15,26,30.60
2010,07,08,15,27,30.60
2010,07,08,15,28,30.60
2010,07,08,15,29,30.60
2010,07,08,15,30,30.60
2010,07,08,15,31,30.70
2010,07,08,15,32,30.60
2010,07,08,15,33,30.40
2010,07,08,15,34,30.30
2010,07,08,15,35,30.20
2010,07,08,15,36,30.20
2010,07,08,15,37,30.20
2010,07,08,15,38,30.20
2010,07,08,15,39,30.20
2010,07,08,15,40,30.20
2010,07,08,15,41,30.20
2010,07,08,15,42,30.30
2010,07,08,15,43,30.30
2010,07,08,15,44,30.30
2010,07,08,15,45,30.30
2010,07,08,15,46,30.30
2010,07,08,15,47,30.20
2010,07,08,15,48,30.10
2010,07,08,15,49,30.00
2010,07,08,15,50,29.90
2010,07,08,15,51,29.80
2010,07,08,15,52,29.70
2010,07,08,15,53,29.60
2010,07,08,15,54,29.60
2010,07,08,15,55,29.70
2010,07,08,15,56,29.70
2010,07,08,15,57,29.80
2010,07,08,15,58,29.80
2010,07,08,15,59,29.80
2010,07,08,16,00,29.90
2010,07,08,16,01,29.90
2010,07,08,16,02,29.80
2010,07,08,16,03,29.80
2010,07,08,16,04,29.80
2010,07,08,16,05,29.90
2010,07,08,16,06,29.90
2010,07,08,16,07,29.90
2010,07,08,16,08,30.00
2010,07,08,16,09,30.10
2010,07,08,16,10,30.20
2010,07,08,16,11,30.20
2010,07,08,16,12,30.30
2010,07,08,16,13,30.40
2010,07,08,16,14,30.60
2010,07,08,16,15,30.60
2010,07,08,16,16,30.60
2010,07,08,16,17,30.70
2010,07,08,16,18,30.70
2010,07,08,16,19,30.80
2010,07,08,16,20,30.80
2010,07,08,16,21,30.80
2010,07,08,16,22,30.70
2010,07,08,16,23,30.70
2010,07,08,16,24,30.60
2010,07,08,16,25,30.60
2010,07,08,16,26,30.60
2010,07,08,16,27,30.60
2010,07,08,16,28,30.50
2010,07,08,16,29,30.40
2010,07,08,16,30,30.40
2010,07,08,16,31,30.30
2010,07,08,16,32,30.40
2010,07,08,16,33,30.40
2010,07,08,16,34,30.50
2010,07,08,16,35,30.60
2010,07,08,16,36,30.60
2010,07,08,16,37,30.60
2010,07,08,16,38,30.60
2010,07,08,16,39,30.70
2010,07,08,16,40,30.60
2010,07,08,16,41,30.60
2010,07,08,16,42,30.60
2010,07,08,16,43,30.70
2010,07,08,16,44,30.80
2010,07,08,16,45,30.90
2010,07,08,16,46,30.90
2010,07,08,16,47,30.90
2010,07,08,16,48,31.00
2010,07,08,16,49,31.00
2010,07,08,16,50,31.00
2010,07,08,16,51,31.00
2010,07,08,16,52,31.00
2010,07,08,16,53,31.00
2010,07,08,16,54,31.00
2010,07,08,16,55,31.00
2010,07,08,16,56,31.00
2010,07,08,16,57,31.00
2010,07,08,16,58,31.00
2010,07,08,16,59,31.00
2010,07,08,17,00,31.00
2010,07,08,17,01,31.00
2010,07,08,17,02,31.10
2010,07,08,17,03,31.10
2010,07,08,17,04,31.10
2010,07,08,17,05,31.00
2010,07,08,17,06,31.00
2010,07,08,17,07,31.00
2010,07,08,17,08,30.90
2010,07,08,17,09,30.90
2010,07,08,17,10,30.90
2010,07,08,17,11,30.80
2010,07,08,17,12,30.80
2010,07,08,17,13,30.80
2010,07,08,17,14,30.90
2010,07,08,17,15,30.90
2010,07,08,17,16,30.80
2010,07,08,17,17,30.90
2010,07,08,17,18,30.90
2010,07,08,17,19,30.90